Volver al catálogo

QUIKSCAT

ActivoCienciaSSO
NORAD 25789·PAYLOAD·🇺🇸 United States

Lanzado Jun 20, 1999 desde Vandenberg Space Force Base

Loading…

Próximos Pases (próximas 24 horas)

TLE

ActualizadoSource: Space-Track

Época: Sep 14, 2026, 14:51 UTC

1 25789U 99034A   26257.61943439  .00000226  00000-0  64400-4 0  9995
2 25789  98.2536 136.7312 0095450   8.3095 351.9654 14.51775557425491

Sigue QUIKSCAT en tiempo real con AllMySat

Download on the App Store